Location: Dodgeville
(42.9600°N, 90.1300°W)
Time: 08:32:31
(UTC-05:00)

Amateur Radio Satellites - All Passes

Search period start: 27 July 2016 08:02
Search period end: 28 July 2016 08:02
Location: Dodgeville, 42.9600°N, 90.1300°W

Satellite Date Start Highest point End Downlink Frequencies (MHz)
Time Altitude Azimuth
DOVE 4 27 Jul 08:04:40 08:09:51 80° 104° (ESE) 08:15:08 437.250
Cosmos 2491 27 Jul 08:10:08 08:18:08 38° 70° (ENE) 08:26:06 435.465 / 435.565
GOMX 1 27 Jul 08:11:37 08:16:24 45° 288° (WNW) 08:21:26 467.674
CUTE 1.7 + AOD 2 27 Jul 08:13:29 08:16:41 21° 93° (E) 08:19:52 437.475
CINEMA 3 27 Jul 08:17:08 08:21:41 33° 95° (E) 08:26:10 145.822/145.860
LilacSat-2 27 Jul 08:24:25 08:27:10 19° 293° (WNW) 08:29:55 437.200
Cubesat XI-IV 27 Jul 08:36:46 08:41:14 28° 296° (WNW) 08:45:41 437.490
PRISM 27 Jul 08:40:09 08:44:12 71° 75° (ENE) 08:48:16 437.425
RS-15 27 Jul 08:43:07 08:54:31 60° 313° (NW) 09:06:35 29.354- 29.394
SO-50 27 Jul 08:48:21 08:53:15 88° 308° (NW) 08:58:06 436.795
BRITE-PL 27 Jul 08:50:17 08:51:27 11° 300° (WNW) 08:52:38 437.365/2234.400
STRAND 1 27 Jul 08:51:25 08:54:34 16° 269° (W) 08:57:43 437.568
SEEDS 27 Jul 08:52:09 08:56:05 39° 98° (E) 08:59:59 437.485
CUTE-I 27 Jul 09:01:12 09:04:41 18° 300° (WNW) 09:08:08 437.470
UWE-3 27 Jul 09:03:04 09:06:24 19° 91° (E) 09:09:39 435.000/436.395/437.385
COMPASS 1 27 Jul 09:04:00 09:07:51 36° 97° (E) 09:11:40 437.405
FUNcube-1 27 Jul 09:04:16 09:05:42 11° 88° (E) 09:07:08 145.935
ZACube-1 27 Jul 09:04:45 09:06:42 13° 88° (E) 09:08:37 437.345
HO-68 27 Jul 09:14:06 09:21:21 79° 105° (ESE) 09:28:33 435.675
CUBEBUG 2 27 Jul 09:24:19 09:28:54 47° 98° (E) 09:33:20 437.445
Cosmos 2504 27 Jul 09:30:34 09:35:07 15° 74° (ENE) 09:39:38 435.465 / 435.565
TIGRISAT 27 Jul 09:31:05 09:34:40 22° 65° (ENE) 09:38:17 435.000
AAUSAT CUBESAT 2 27 Jul 09:32:09 09:36:14 61° 101° (E) 09:40:18 437.432
CANX-2 27 Jul 09:35:14 09:39:13 41° 288° (WNW) 09:43:10 2200.000
YUBILEINY 27 Jul 09:39:17 09:47:40 52° 89° (E) 09:56:07 435.215
NOAA 18 27 Jul 09:39:49 09:40:27 10° 307° (NW) 09:41:05 137.9125
DOVE 4 27 Jul 09:44:04 09:46:54 15° 299° (WNW) 09:49:47 437.250
Oscar 11 27 Jul 09:44:40 09:48:35 33° 96° (E) 09:52:28 145.826/435.025
UNISAT 6 27 Jul 09:46:47 09:50:55 33° 68° (ENE) 09:55:08 437.425
CUTE 1.7 + AOD 2 27 Jul 09:48:47 09:52:37 34° 290° (WNW) 09:56:24 437.475
CINEMA 3 27 Jul 09:54:19 09:58:42 31° 292° (WNW) 10:03:03 145.822/145.860
DELFI C3 27 Jul 09:55:31 09:58:14 18° 93° (E) 10:00:58 145.870
Cosmos 2491 27 Jul 10:06:52 10:15:11 51° 271° (W) 10:23:31 435.465 / 435.565
QB50P2 27 Jul 10:14:06 10:15:01 11° 60° (ENE) 10:15:56 145.880/145.840
POLYITAN 1 27 Jul 10:16:33 10:17:39 11° 60° (ENE) 10:18:45 437.675
HUMSAT D 27 Jul 10:18:15 10:20:54 16° 91° (E) 10:23:30 437.325/437.525
ANTELSAT 27 Jul 10:24:39 10:29:17 79° 76° (ENE) 10:34:01 437.575/2403.000
SEEDS 27 Jul 10:28:35 10:31:30 19° 294° (WNW) 10:34:26 437.485
SO-50 27 Jul 10:31:13 10:34:25 17° 323° (NW) 10:37:35 436.795
FUNcube-1 27 Jul 10:37:58 10:42:27 70° 286° (WNW) 10:46:49 145.935
UWE-3 27 Jul 10:38:40 10:43:04 43° 289° (WNW) 10:47:20 435.000/436.395/437.385
ZACube-1 27 Jul 10:38:58 10:43:27 64° 286° (WNW) 10:47:48 437.345
COMPASS 1 27 Jul 10:40:10 10:43:09 20° 294° (WNW) 10:46:08 437.405
NANOSAT C BR1 27 Jul 10:56:49 11:00:21 26° 68° (ENE) 11:03:55 145.865
M-CUBED/EXP-1 PRIME 27 Jul 10:59:24 11:04:03 56° 106° (ESE) 11:08:39 437.505
RS-15 27 Jul 11:00:28 11:10:19 28° 344° (NNW) 11:20:29 29.354- 29.394
DUCHIFAT 1 27 Jul 11:01:00 11:04:34 27° 68° (ENE) 11:08:10 145.980
CUBEBUG 2 27 Jul 11:01:44 11:05:09 20° 296° (WNW) 11:08:31 437.445
HO-68 27 Jul 11:03:00 11:08:18 23° 304° (NW) 11:13:36 435.675
TIGRISAT 27 Jul 11:06:42 11:11:04 41° 262° (W) 11:15:32 435.000
AAUSAT CUBESAT 2 27 Jul 11:09:27 11:11:13 13° 298° (WNW) 11:12:59 437.432
BUGSAT 1 27 Jul 11:16:02 11:18:48 18° 64° (ENE) 11:21:37 437.445
Cosmos 2504 27 Jul 11:18:08 11:26:58 75° 94° (E) 11:35:46 435.465 / 435.565
QB50P1 27 Jul 11:18:40 11:22:44 47° 72° (ENE) 11:26:51 145.935-145.965
Oscar 11 27 Jul 11:21:08 11:24:33 23° 293° (WNW) 11:27:56 145.826/435.025
UNISAT 6 27 Jul 11:23:43 11:27:38 27° 266° (W) 11:31:37 437.425
POPSAT HIP 1 27 Jul 11:25:02 11:29:10 54° 73° (ENE) 11:33:22 437.405
AUBIESAT-1 27 Jul 11:25:26 11:30:07 86° 111° (ESE) 11:34:45 437.475
DELFI C3 27 Jul 11:29:36 11:33:13 35° 289° (WNW) 11:36:47 145.870
YUBILEINY 27 Jul 11:36:48 11:44:44 37° 290° (WNW) 11:52:46 435.215
QB50P2 27 Jul 11:45:54 11:50:10 82° 259° (W) 11:54:28 145.880/145.840
JAS-2 27 Jul 11:46:56 11:52:16 35° 68° (ENE) 11:57:09 435.910
POLYITAN 1 27 Jul 11:48:32 11:52:48 80° 258° (WSW) 11:57:07 437.675
HUMSAT D 27 Jul 11:52:45 11:56:45 43° 288° (WNW) 12:00:40 437.325/437.525
AISAT 27 Jul 11:56:39 11:59:59 20° 93° (E) 12:03:19 437.250
DX 1 27 Jul 11:56:48 11:59:01 14° 91° (E) 12:01:14 434.975-435.025
ANTELSAT 27 Jul 12:05:14 12:06:34 11° 272° (W) 12:07:55 437.575/2403.000
UKube-1 27 Jul 12:09:58 12:12:27 15° 92° (E) 12:14:56 .
Oscar 19 27 Jul 12:10:20 12:13:18 16° 60° (ENE) 12:16:18 437.125/150
ESTCUBE 1 27 Jul 12:31:22 12:35:53 79° 103° (ESE) 12:40:22 437.505/2401.250
NANOSAT C BR1 27 Jul 12:32:20 12:35:59 28° 264° (W) 12:39:42 145.865
M-CUBED/EXP-1 PRIME 27 Jul 12:34:50 12:38:08 19° 302° (WNW) 12:41:27 437.505
DUCHIFAT 1 27 Jul 12:36:37 12:40:12 27° 264° (W) 12:43:50 145.980
SPROUT 27 Jul 12:41:59 12:45:44 28° 96° (E) 12:49:26 437.525
AO-85 27 Jul 12:45:58 12:48:11 13° 107° (ESE) 12:50:22 145.980
VELOX 1 27 Jul 12:47:19 12:51:45 66° 101° (E) 12:56:11 145.980
CUBEBUG 1 27 Jul 12:48:05 12:52:31 80° 105° (ESE) 12:56:55 437.445
50 SAT 27 Jul 12:49:09 12:52:46 81° 103° (ESE) 12:56:21 437.505
BUGSAT 1 27 Jul 12:50:00 12:53:51 41° 262° (W) 12:57:48 437.445
QB50P1 27 Jul 12:56:11 12:58:46 16° 269° (W) 13:01:22 145.935-145.965
AUBIESAT-1 27 Jul 13:01:43 13:03:54 13° 305° (NW) 13:06:05 437.475
POPSAT HIP 1 27 Jul 13:03:08 13:05:18 14° 270° (W) 13:07:29 437.405
AO-7 27 Jul 13:08:14 13:11:22 13° 40° (NE) 13:14:29 29.400- 29.500
Cosmos 2504 27 Jul 13:13:59 13:21:10 27° 295° (WNW) 13:28:21 435.465 / 435.565
AIST 1 27 Jul 13:15:02 13:18:53 35° 91° (E) 13:22:46
RS-15 27 Jul 13:17:46 13:28:07 30° 20° (NNE) 13:38:31 29.354- 29.394
Gurwin Techsat 1B 27 Jul 13:29:50 13:34:41 37° 68° (ENE) 13:39:33 435.225
DX 1 27 Jul 13:31:16 13:35:34 57° 287° (WNW) 13:39:51 434.975-435.025
JAS-2 27 Jul 13:31:58 13:37:22 33° 263° (W) 13:42:19 435.910
AISAT 27 Jul 13:32:26 13:36:36 39° 290° (WNW) 13:40:45 437.250
TISAT 1 27 Jul 13:36:47 13:40:23 26° 95° (E) 13:43:56 437.305
ITAMSAT 1 27 Jul 13:44:30 13:48:00 18° 61° (ENE) 13:51:31 435.822/435.867
UKube-1 27 Jul 13:44:35 13:48:48 51° 288° (WNW) 13:53:00 .
Oscar 19 27 Jul 13:46:56 13:52:01 73° 257° (WSW) 13:57:10 437.125/150
GONETS M04 27 Jul 13:53:00 13:56:45 14° 73° (ENE) 14:00:30
BEESAT 27 Jul 14:06:44 14:07:35 10° 88° (E) 14:08:25 436.000
CUSAT 1 27 Jul 14:08:59 14:10:55 16° 75° (ENE) 14:13:05 437.405
ESTCUBE 1 27 Jul 14:10:23 14:12:03 12° 300° (WNW) 14:13:42 437.505/2401.250
SPROUT 27 Jul 14:17:56 14:21:36 27° 292° (WNW) 14:25:15 437.525
Cosmos 2499 27 Jul 14:21:39 14:26:33 16° 76° (ENE) 14:31:23 435.465 / 435.565
AO-85 27 Jul 14:22:36 14:28:00 86° 123° (ESE) 14:33:10 145.980
VELOX 1 27 Jul 14:25:27 14:27:41 14° 299° (WNW) 14:29:54 145.980
CUBEBUG 1 27 Jul 14:26:44 14:28:09 11° 300° (WNW) 14:29:33 437.445
ITUPSAT 1 27 Jul 14:27:56 14:31:10 18° 92° (E) 14:34:22 437.325
AIST 1 27 Jul 14:53:28 14:56:35 20° 289° (WNW) 14:59:44
AO-7 27 Jul 14:54:13 15:02:09 50° 62° (ENE) 15:10:07 29.400- 29.500
Gurwin Techsat 1B 27 Jul 15:10:03 15:14:40 30° 265° (W) 15:19:18 435.225
TISAT 1 27 Jul 15:12:19 15:15:59 29° 292° (WNW) 15:19:39 437.305
SWISSCUBE 27 Jul 15:19:50 15:24:36 67° 102° (ESE) 15:29:18 437.505
ITAMSAT 1 27 Jul 15:21:47 15:26:58 64° 258° (WSW) 15:32:10 435.822/435.867
RS-15 27 Jul 15:31:17 15:43:37 66° 50° (NE) 15:55:47 29.354- 29.394
SO-50 27 Jul 15:39:39 15:42:51 18° 38° (NE) 15:45:59 436.795
BEESAT 27 Jul 15:41:11 15:45:59 84° 283° (WNW) 15:50:43 436.000
GONETS M04 27 Jul 15:43:16 15:51:53 73° 94° (E) 16:00:34
KKS-1 27 Jul 15:44:16 15:46:11 12° 90° (E) 15:48:06 437.445
CUSAT 1 27 Jul 15:50:28 15:52:49 20° 264° (W) 15:55:33 437.405
ITUPSAT 1 27 Jul 16:04:40 16:09:17 51° 289° (WNW) 16:13:53 437.325
AO-85 27 Jul 16:05:19 16:09:06 19° 321° (NW) 16:12:44 145.980
HORYU 2 27 Jul 16:06:16 16:09:40 22° 65° (ENE) 16:13:05 437.375
Cosmos 2499 27 Jul 16:09:26 16:18:19 79° 95° (E) 16:26:58 435.465 / 435.565
DANDE 27 Jul 16:16:27 16:18:45 27° 264° (W) 16:21:15 436.750
MOZHAYETS 4 27 Jul 16:19:19 16:23:26 32° 96° (E) 16:27:32
STARS 27 Jul 16:21:22 16:24:04 16° 92° (E) 16:26:43 437.465
Cubesat XI-IV 27 Jul 16:43:40 16:45:15 11° 55° (NE) 16:46:51 437.490
BRITE-PL 27 Jul 16:45:58 16:47:30 12° 61° (ENE) 16:49:03 437.365/2234.400
AO-7 27 Jul 16:47:20 16:55:02 40° 262° (W) 17:02:48 29.400- 29.500
SWISSCUBE 27 Jul 16:59:08 17:01:51 15° 299° (WNW) 17:04:33 437.505
CUTE-I 27 Jul 17:04:59 17:08:29 18° 60° (ENE) 17:11:57 437.470
KKS-1 27 Jul 17:18:43 17:23:11 66° 286° (WNW) 17:27:38 437.445
SO-50 27 Jul 17:19:16 17:23:55 79° 238° (WSW) 17:28:24 436.795
BEESAT 27 Jul 17:21:54 17:22:58 11° 303° (WNW) 17:24:02 436.000
NOAA 15 27 Jul 17:22:31 17:27:05 31° 66° (ENE) 17:31:41 137.62
LilacSat-2 27 Jul 17:32:52 17:35:44 20° 67° (ENE) 17:38:36 437.200
PHONESAT 2.4 27 Jul 17:33:08 17:35:46 26° 160° (SSE) 17:38:24 2401.200-2431.200
CUBESAT XI-V 27 Jul 17:39:45 17:43:44 28° 95° (E) 17:47:43 437.345
HORYU 2 27 Jul 17:41:45 17:45:58 40° 262° (W) 17:50:13 437.375
GONETS M04 27 Jul 17:42:37 17:49:34 26° 295° (WNW) 17:56:35
NOAA 18 27 Jul 17:42:37 17:47:41 38° 67° (ENE) 17:52:46 137.9125
GOMX 1 27 Jul 17:44:09 17:47:23 22° 66° (ENE) 17:50:44 467.674
RS-15 27 Jul 17:44:27 17:55:35 42° 253° (WSW) 18:06:33 29.354- 29.394
BEESAT 3 27 Jul 17:53:15 17:55:43 16° 111° (ESE) 17:58:13 437.485
STARS 27 Jul 17:56:23 18:00:43 52° 288° (WNW) 18:05:01 437.465
MOZHAYETS 4 27 Jul 17:56:41 18:00:29 26° 293° (WNW) 18:04:14
HO-68 27 Jul 18:00:29 18:03:49 14° 49° (NE) 18:07:08 435.675
BEESAT 2 27 Jul 18:02:13 18:02:52 10° 108° (ESE) 18:03:31 435.950
Cosmos 2499 27 Jul 18:05:22 18:12:18 25° 295° (WNW) 18:19:08 435.465 / 435.565
PCSat 27 Jul 18:13:57 18:16:09 13° 102° (ESE) 18:18:23 145.827
Cubesat XI-IV 27 Jul 18:19:01 18:24:23 74° 73° (ENE) 18:29:46 437.490
BRITE-PL 27 Jul 18:21:22 18:25:28 63° 259° (W) 18:29:38 437.365/2234.400
CUTE-I 27 Jul 18:42:36 18:47:57 70° 258° (WSW) 18:53:20 437.470
CANX-2 27 Jul 18:54:34 18:57:03 15° 64° (ENE) 18:59:30 2200.000
NOAA 15 27 Jul 19:02:02 19:06:47 35° 263° (W) 19:11:33 137.62
LilacSat-2 27 Jul 19:06:21 19:09:49 31° 263° (W) 19:13:20 437.200
CUTE 1.7 + AOD 2 27 Jul 19:07:24 19:10:18 18° 65° (ENE) 19:13:11 437.475
PHONESAT 2.4 27 Jul 19:08:58 19:11:59 52° 177° (S) 19:15:00 2401.200-2431.200
DOVE 4 27 Jul 19:11:15 19:15:32 84° 77° (ENE) 19:20:07 437.250
CUBESAT XI-V 27 Jul 19:17:04 19:21:05 30° 292° (WNW) 19:25:05 437.345
CINEMA 3 27 Jul 19:19:36 19:23:36 31° 68° (ENE) 19:27:47 145.822/145.860
STRAND 1 27 Jul 19:20:23 19:24:06 20° 92° (E) 19:27:46 437.568
GOMX 1 27 Jul 19:21:32 19:25:19 33° 264° (W) 19:29:14 467.674
NOAA 18 27 Jul 19:23:30 19:28:22 31° 264° (W) 19:33:17 137.9125
BEESAT 3 27 Jul 19:29:15 19:33:02 46° 308° (NW) 19:36:52 437.485
BEESAT 2 27 Jul 19:36:09 19:40:05 73° 305° (NW) 19:44:05 435.950
O/OREOS (USA 219) 27 Jul 19:36:50 19:36:53 10° 97° (E) 19:36:58 437.305
HO-68 27 Jul 19:43:06 19:50:10 64° 69° (ENE) 19:57:18 435.675
SEEDS 27 Jul 19:44:40 19:48:23 31° 70° (ENE) 19:52:06 437.485
YUBILEINY 27 Jul 19:48:35 19:55:51 27° 65° (ENE) 20:03:02 435.215
PCSat 27 Jul 19:53:18 19:58:44 90° 322° (NW) 20:04:12 145.827
COMPASS 1 27 Jul 19:55:37 19:59:12 28° 69° (ENE) 20:02:47 437.405
FUNcube-1 27 Jul 20:00:57 20:02:34 12° 60° (ENE) 20:04:09 145.935
UWE-3 27 Jul 20:00:59 20:04:11 19° 64° (ENE) 20:07:25 435.000/436.395/437.385
ZACube-1 27 Jul 20:01:44 20:03:44 13° 61° (ENE) 20:05:46 437.345
Cubesat XI-IV 27 Jul 20:02:04 20:05:01 15° 270° (W) 20:07:58 437.490
AIST 2 27 Jul 20:06:37 20:07:44 11° 108° (ESE) 20:08:50 435.215
CUBEBUG 2 27 Jul 20:22:48 20:27:09 43° 71° (ENE) 20:31:37 437.445
AAUSAT CUBESAT 2 27 Jul 20:22:58 20:26:55 44° 72° (ENE) 20:30:53 437.432
CANX-2 27 Jul 20:28:16 20:32:27 53° 260° (W) 20:36:40 2200.000
Oscar 11 27 Jul 20:40:13 20:43:59 29° 69° (ENE) 20:47:46 145.826/435.025
AUBIESAT-1 27 Jul 20:40:32 20:42:20 13° 54° (NE) 20:44:11 437.475
CUTE 1.7 + AOD 2 27 Jul 20:41:44 20:45:49 43° 262° (W) 20:49:54 437.475
DELFI C3 27 Jul 20:43:20 20:45:12 13° 63° (ENE) 20:47:03 145.870
PHONESAT 2.4 27 Jul 20:45:22 20:48:17 38° 193° (SSW) 20:51:11 2401.200-2431.200
CINEMA 3 27 Jul 20:56:50 21:00:43 28° 266° (W) 21:04:47 145.822/145.860
STRAND 1 27 Jul 20:58:37 21:03:34 51° 289° (WNW) 21:08:28 437.568
HUMSAT D 27 Jul 21:10:53 21:13:13 14° 63° (ENE) 21:15:33 437.325/437.525
O/OREOS (USA 219) 27 Jul 21:11:07 21:15:35 78° 294° (WNW) 21:20:05 437.305
Cosmos 2504 27 Jul 21:11:14 21:18:04 28° 66° (ENE) 21:24:28 435.465 / 435.565
ISS 27 Jul 21:11:47 21:14:45 33° 139° (SE) 21:17:44 145.825
Cosmos 2491 27 Jul 21:12:39 21:20:35 41° 86° (E) 21:28:31 435.465 / 435.565
AO-85 27 Jul 21:14:57 21:17:35 15° 35° (NE) 21:20:06 145.980
BEESAT 2 27 Jul 21:17:22 21:18:39 11° 324° (NW) 21:19:56 435.950
SEEDS 27 Jul 21:20:41 21:24:06 23° 266° (W) 21:27:31 437.485
COMPASS 1 27 Jul 21:31:16 21:34:44 25° 265° (W) 21:38:12 437.405
HO-68 27 Jul 21:32:38 21:38:21 25° 267° (W) 21:44:09 435.675
FUNcube-1 27 Jul 21:33:33 21:38:06 83° 257° (WSW) 21:42:43 145.935
ZACube-1 27 Jul 21:34:50 21:39:23 76° 258° (WSW) 21:44:00 437.345
UWE-3 27 Jul 21:35:47 21:40:14 49° 261° (W) 21:44:46 435.000/436.395/437.385
PCSat 27 Jul 21:39:15 21:42:54 18° 320° (NW) 21:46:34 145.827
AIST 2 27 Jul 21:41:30 21:45:35 74° 303° (WNW) 21:49:45 435.215
YUBILEINY 27 Jul 21:44:39 21:53:26 71° 267° (W) 22:02:09 435.215
M-CUBED/EXP-1 PRIME 27 Jul 21:46:47 21:50:33 76° 69° (ENE) 21:54:42 437.505
PRISM 27 Jul 21:55:49 21:59:56 79° 283° (WNW) 22:04:01 437.425
AAUSAT CUBESAT 2 27 Jul 22:00:04 22:02:37 16° 268° (W) 22:05:10 437.432
CUBEBUG 2 27 Jul 22:00:32 22:03:57 20° 268° (W) 22:07:28 437.445
AUBIESAT-1 27 Jul 22:12:22 22:16:09 67° 253° (WSW) 22:20:18 437.475
DELFI C3 27 Jul 22:15:42 22:19:36 55° 260° (W) 22:23:31 145.870
Oscar 11 27 Jul 22:16:26 22:20:05 26° 265° (W) 22:23:46 145.826/435.025
ANTELSAT 27 Jul 22:16:56 22:19:46 16° 90° (E) 22:22:33 437.575/2403.000
PHONESAT 2.4 27 Jul 22:22:46 22:24:18 13° 209° (SSW) 22:25:50 2401.200-2431.200
HUMSAT D 27 Jul 22:44:07 22:48:21 58° 259° (W) 22:52:37 437.325/437.525
ISS 27 Jul 22:48:07 22:51:10 36° 336° (NNW) 22:54:14 145.825
DX 1 27 Jul 22:53:32 22:55:53 14° 62° (ENE) 22:58:13 434.975-435.025
AO-85 27 Jul 22:54:21 22:58:47 89° 237° (WSW) 23:02:51 145.980
O/OREOS (USA 219) 27 Jul 22:55:03 22:55:47 10° 313° (NW) 22:56:31 437.305
AISAT 27 Jul 22:55:06 22:58:22 21° 65° (ENE) 23:01:39 437.250
TIGRISAT 27 Jul 22:57:17 23:01:38 39° 97° (E) 23:05:53 435.000
Cosmos 2504 27 Jul 23:04:04 23:12:05 62° 268° (W) 23:19:30 435.465 / 435.565
UKube-1 27 Jul 23:05:44 23:08:13 15° 62° (ENE) 23:10:44 .
Cosmos 2491 27 Jul 23:09:04 23:17:18 45° 287° (WNW) 23:25:36 435.465 / 435.565
UNISAT 6 27 Jul 23:13:43 23:18:21 62° 101° (E) 23:22:50 437.425
AIST 1 27 Jul 23:23:11 23:24:04 10° 66° (ENE) 23:24:58
AIST 2 27 Jul 23:23:12 23:24:50 12° 325° (NW) 23:26:28 435.215
50 SAT 27 Jul 23:27:22 23:30:47 39° 72° (ENE) 23:34:13 437.505
QB50P2 27 Jul 23:31:13 23:33:48 15° 91° (E) 23:36:22 145.880/145.840
ESTCUBE 1 27 Jul 23:31:26 23:35:55 79° 76° (ENE) 23:40:25 437.505/2401.250
POLYITAN 1 27 Jul 23:33:48 23:36:27 16° 91° (E) 23:39:05 437.675
SPROUT 27 Jul 23:36:33 23:40:00 24° 67° (ENE) 23:43:29 437.525
CUBEBUG 1 27 Jul 23:44:37 23:48:54 73° 75° (ENE) 23:53:14 437.445
YUBILEINY 27 Jul 23:44:51 23:48:29 13° 287° (WNW) 23:52:08 435.215
VELOX 1 27 Jul 23:45:13 23:49:33 65° 73° (ENE) 23:53:55 145.980
ANTELSAT 27 Jul 23:52:17 23:56:49 53° 288° (WNW) 00:01:14 437.575/2403.000
NANOSAT C BR1 28 Jul 00:15:11 00:19:15 41° 98° (E) 00:23:17 145.865
DUCHIFAT 1 28 Jul 00:19:05 00:23:10 42° 99° (E) 00:27:13 145.980
ISS 28 Jul 00:25:56 00:28:16 18° 356° (N) 00:30:35 145.825
DX 1 28 Jul 00:27:19 00:31:35 59° 259° (W) 00:35:53 434.975-435.025
TISAT 1 28 Jul 00:29:31 00:32:47 22° 66° (ENE) 00:36:04 437.305
AISAT 28 Jul 00:30:29 00:34:35 39° 262° (W) 00:38:44 437.250
BUGSAT 1 28 Jul 00:30:56 00:34:31 26° 95° (E) 00:38:05 437.445
TIGRISAT 28 Jul 00:34:28 00:38:04 23° 295° (WNW) 00:41:37 435.000
QB50P1 28 Jul 00:37:54 00:42:13 79° 103° (ESE) 00:46:29 145.935-145.965
JAS-2 28 Jul 00:38:50 00:43:16 26° 95° (E) 00:47:59 435.910
UKube-1 28 Jul 00:39:37 00:43:50 55° 259° (W) 00:48:05 .
POPSAT HIP 1 28 Jul 00:44:25 00:48:45 89° 289° (WNW) 00:53:01 437.405
UNISAT 6 28 Jul 00:51:50 00:54:31 15° 298° (WNW) 00:57:10 437.425
SWISSCUBE 28 Jul 00:53:28 00:54:41 11° 58° (ENE) 00:55:53 437.505
AIST 1 28 Jul 00:57:53 01:02:13 75° 264° (W) 01:06:34
50 SAT 28 Jul 01:02:38 01:04:35 14° 268° (W) 01:06:33 437.505
QB50P2 28 Jul 01:05:43 01:09:52 48° 288° (WNW) 01:13:59 145.880/145.840
POLYITAN 1 28 Jul 01:08:22 01:12:31 47° 288° (WNW) 01:16:37 437.675
SPROUT 28 Jul 01:12:01 01:15:49 31° 264° (W) 01:19:39 437.525
ESTCUBE 1 28 Jul 01:12:54 01:13:16 10° 272° (W) 01:13:38 437.505/2401.250
BEESAT 28 Jul 01:13:00 01:15:45 16° 61° (ENE) 01:18:32 436.000
VELOX 1 28 Jul 01:24:44 01:26:27 12° 270° (W) 01:28:12 145.980
CUBEBUG 1 28 Jul 01:25:01 01:25:42 10° 271° (W) 01:26:22 437.445
ITUPSAT 1 28 Jul 01:35:21 01:39:12 24° 65° (ENE) 01:43:02 437.325
Gurwin Techsat 1B 28 Jul 01:46:42 01:49:07 13° 88° (E) 01:51:32 435.225
NANOSAT C BR1 28 Jul 01:51:40 01:54:41 19° 295° (WNW) 01:57:42 145.865
GONETS M04 28 Jul 01:52:33 02:00:37 38° 71° (ENE) 02:08:40
DUCHIFAT 1 28 Jul 01:55:35 01:58:33 18° 295° (WNW) 02:01:30 145.980
Oscar 19 28 Jul 01:57:39 02:02:26 37° 97° (E) 02:07:12 437.125/150
Cosmos 2499 28 Jul 02:01:14 02:07:49 28° 66° (ENE) 02:13:59 435.465 / 435.565
ISS 28 Jul 02:02:46 02:05:30 24° 16° (NNE) 02:08:13 145.825
TISAT 1 28 Jul 02:04:27 02:08:14 33° 263° (W) 02:12:06 437.305
BUGSAT 1 28 Jul 02:06:11 02:09:51 29° 292° (WNW) 02:13:32 437.445
BEESAT 3 28 Jul 02:08:44 02:11:22 17° 41° (NE) 02:14:00 437.485
QB50P1 28 Jul 02:16:10 02:17:21 11° 300° (WNW) 02:18:30 145.935-145.965
BEESAT 2 28 Jul 02:17:00 02:18:52 13° 37° (NE) 02:20:43 435.950
JAS-2 28 Jul 02:23:34 02:28:30 41° 291° (WNW) 02:33:49 435.910
SWISSCUBE 28 Jul 02:26:54 02:31:41 84° 76° (ENE) 02:36:30 437.505
KKS-1 28 Jul 02:43:21 02:45:41 14° 61° (ENE) 02:48:00 437.445
BEESAT 28 Jul 02:48:14 02:53:00 67° 258° (WSW) 02:57:47 436.000
AO-7 28 Jul 02:57:56 03:00:59 12° 86° (E) 03:04:01 29.400- 29.500
PCSat 28 Jul 02:58:02 03:01:36 17° 39° (NE) 03:05:10 145.827
ITUPSAT 1 28 Jul 03:12:19 03:16:49 39° 262° (W) 03:21:20 437.325
CUSAT 1 28 Jul 03:13:40 03:16:29 19° 96° (E) 03:18:54 437.405
STARS 28 Jul 03:19:08 03:21:54 17° 63° (ENE) 03:24:40 437.465
MOZHAYETS 4 28 Jul 03:21:50 03:26:02 35° 69° (ENE) 03:30:15
Gurwin Techsat 1B 28 Jul 03:24:21 03:29:42 81° 285° (WNW) 03:35:01 435.225
ITAMSAT 1 28 Jul 03:33:48 03:38:43 42° 99° (E) 03:43:36 435.822/435.867
Oscar 19 28 Jul 03:37:12 03:41:37 29° 294° (WNW) 03:46:03 437.125/150
ISS 28 Jul 03:38:58 03:42:14 81° 216° (SW) 03:45:29 145.825
DANDE 28 Jul 03:43:29 03:47:23 21° 94° (E) 03:50:37 436.750
BEESAT 3 28 Jul 03:45:29 03:49:25 60° 240° (WSW) 03:53:18 437.485
GONETS M04 28 Jul 03:49:16 03:57:39 51° 271° (W) 04:06:02
BEESAT 2 28 Jul 03:53:18 03:57:19 86° 54° (NE) 04:01:19 435.950
Cosmos 2499 28 Jul 03:53:50 04:01:29 58° 269° (W) 04:08:34 435.465 / 435.565
SWISSCUBE 28 Jul 04:09:10 04:10:05 10° 272° (W) 04:11:01 437.505
KKS-1 28 Jul 04:17:19 04:21:42 64° 258° (WSW) 04:26:09 437.445
AIST 2 28 Jul 04:24:47 04:27:05 14° 38° (NE) 04:29:23 435.215
PCSat 28 Jul 04:40:21 04:45:49 86° 60° (ENE) 04:51:14 145.827
CUBESAT XI-V 28 Jul 04:43:52 04:47:55 31° 69° (ENE) 04:51:58 437.345
AO-7 28 Jul 04:46:54 04:55:15 68° 105° (ESE) 05:03:31 29.400- 29.500
STARS 28 Jul 04:53:33 04:57:50 52° 260° (W) 05:02:10 437.465
CUSAT 1 28 Jul 04:55:23 04:58:23 21° 283° (WNW) 05:00:55 437.405
MOZHAYETS 4 28 Jul 04:59:28 05:03:16 24° 266° (W) 05:07:03
Gurwin Techsat 1B 28 Jul 05:06:49 05:08:47 12° 304° (WNW) 05:10:46 435.225
ITAMSAT 1 28 Jul 05:13:43 05:17:58 26° 296° (WNW) 05:22:12 435.822/435.867
DANDE 28 Jul 05:25:03 05:30:04 38° 282° (WNW) 05:33:55 436.750
HORYU 2 28 Jul 05:31:37 05:35:44 34° 98° (E) 05:39:48 437.375
O/OREOS (USA 219) 28 Jul 05:41:22 05:45:09 26° 57° (ENE) 05:48:58 437.305
RS-15 28 Jul 05:56:57 06:06:46 35° 105° (ESE) 06:16:59 29.354- 29.394
AIST 2 28 Jul 06:01:58 06:06:10 87° 236° (SW) 06:10:20 435.215
NOAA 18 28 Jul 06:05:11 06:08:01 14° 89° (E) 06:10:50 137.9125
CUBESAT XI-V 28 Jul 06:21:21 06:25:17 27° 265° (W) 06:29:13 437.345
BRITE-PL 28 Jul 06:23:51 06:28:22 37° 98° (E) 06:33:12 437.365/2234.400
PCSat 28 Jul 06:25:59 06:28:25 13° 257° (WSW) 06:30:52 145.827
Cubesat XI-IV 28 Jul 06:35:54 06:40:26 27° 95° (E) 06:44:54 437.490
STRAND 1 28 Jul 06:36:48 06:41:20 32° 67° (ENE) 06:45:52 437.568
LilacSat-2 28 Jul 06:38:50 06:42:03 25° 95° (E) 06:45:14 437.200
AO-7 28 Jul 06:40:26 06:47:25 31° 305° (NW) 06:54:22 29.400- 29.500
CUTE-I 28 Jul 06:58:51 07:03:57 44° 99° (E) 07:09:00 437.470
HORYU 2 28 Jul 07:08:31 07:12:06 24° 294° (WNW) 07:15:40 437.375
DOVE 4 28 Jul 07:09:00 07:13:13 25° 93° (E) 07:17:29 437.250
NOAA 15 28 Jul 07:15:28 07:20:45 82° 104° (ESE) 07:26:02 137.62
O/OREOS (USA 219) 28 Jul 07:20:30 07:24:37 34° 255° (WSW) 07:28:44 437.305
GOMX 1 28 Jul 07:20:34 07:25:38 63° 101° (E) 07:30:57 467.674
Cosmos 2491 28 Jul 07:21:53 07:28:16 22° 62° (ENE) 07:34:36 435.465 / 435.565
SO-50 28 Jul 07:34:21 07:38:30 28° 114° (ESE) 07:42:38 436.795
NOAA 18 28 Jul 07:43:44 07:49:19 80° 287° (WNW) 07:54:49 137.9125
